Regional Weather Roundup
Issued by NWS

Home | Current Version | Previous Version | Graphics & Text | Print | Product List | Glossary On
Versions: 1 2 3 4 5 6 7 8 9 10 11 12 13 14 15 16 17 18 19 20 21 22 23 24 25 26 27
000
ASUS45 KBOI 230810
RWRID

IDAHO REGIONAL WEATHER ROUNDUP
NATIONAL WEATHER SERVICE BOISE ID
100 AM MST MON JAN 23 2017

NOTE: "FAIR" INDICATES FEW OR NO CLOUDS BELOW 12000 FEET
WITH NO SIGNIFICANT WEATHER AND/OR OBSTRUCTIONS TO VISIBILITY

IDZ012-014-230900-
SOUTHWEST IDAHO


CITY           SKY/WX    TMP DP  RH WIND       PRES   REMARKS
BOISE          MOCLDY    28  25  88 E3        29.61F
CALDWELL       FOG       24  23  96 SW6       29.64F VSB 1/2 WCI  17
MOUNTAIN HOME  DRIZZLE   29  29 100 CALM      29.61F
$$

IDZ016-017-230900-
SOUTHCENTRAL IDAHO


CITY           SKY/WX    TMP DP  RH WIND       PRES   REMARKS
BURLEY         CLOUDY    34  30  85 S3        29.58F
JEROME         CLOUDY    31  30  96 NE16      29.59F WCI  20
TWIN FALLS     CLOUDY    32  29  88 S7        29.58F WCI  26
$$

IDZ019>023-230900-
SOUTHEAST IDAHO


CITY           SKY/WX    TMP DP  RH WIND       PRES   REMARKS
IDAHO FALLS    CLOUDY    29  29 100 N5        29.65F WCI  24
POCATELLO      LGT SNOW  32  30  92 CALM      29.64F FOG
REXBURG        FLURRIES  28  28 100 E3        29.65F
$$

IDZ006-010-011-018-031-032-230900-
CENTRAL IDAHO MOUNTAINS


CITY           SKY/WX    TMP DP  RH WIND       PRES   REMARKS
MCCALL         PTCLDY    10   8  92 E5        29.57S FOG     WCI   2
HAILEY         CLOUDY    27  23  86 NW8       29.64F WCI  18
STANLEY          N/A      8   5  87 CALM      29.60R
SALMON         CLOUDY    10   7  85 SE3       29.65R
CHALLIS        PTCLDY    12  12 100 S7        29.64S WCI   1
$$

IDZ002-004-006-007-026-230900-
NORTHERN IDAHO


CITY           SKY/WX    TMP DP  RH WIND       PRES   REMARKS
LEWISTON       CLEAR     32  29  88 SW9       29.66R WCI  24
LOWELL           N/A     32  31  96 CALM      29.71R
COEUR D`ALENE  LGT RAIN  33  32  96 SE5       29.62F WCI  29
MULLAN PASS    LGT SNOW  24  22  91 VRB3      29.50F FOG
$$




USA.gov is the U.S. government's official web portal to all federal, state and local government web resources and services.